SL-14 DEB, 45298

Orbit data source: Space-Track

SL-14 DEB, 45298 is space debris in LEO originally from a launch on Thu, 15 Aug 1991 UTC launched from the Plesetsk Missile And Space Complex (PKMTR). Debris objects in space refer to the collection of defunct objects orbiting the Earth. Examples of debris include non-operational satellites, rocket bodies, and fragments generated from explosions, collisions, or faulty payload assembly.

Loading next visibility...
Identifier
45298, 1991-056AL
Orbit
LEO
Country
Flag of CISCIS
Related business
Manufacturer
Unknown
Mission
Spacecraft
Bus & Motor
Unknown
Mass
Unknown
Launch date (UTC)
1991-08-15 (35 years ago)
Launch vehicle
Unknown
Launch site
Plesetsk Missile And Space Complex (PKMTR)
Object type
Payload
Rocket body
Debris
Shape & HBR
Unknown shape, 0.3 m
Radar Cross Section
Medium (>0.1 m² and <1 m²)

Expand to show TLE details & history
Last TLE update: 18 hours ago

TLE from 18 hours ago
0 SL-14 DEB
1 45298U 91056AL  26235.26261043 -.00001323  00000-0 -14759-2 0  9990
2 45298  82.5903 343.3788 0153795 218.7900 140.2132 13.66984648321105
Epoch: 2026-08-23T06:18Z
TLE epoch observation values (Epoch: 2026-08-23T06:18:09.541Z)
Latitude
-0°
Longitude
-82.72214°
Altitude
1,101.334 km
Speed
7.258 km/s
True Right ascension
22h 53m 30s
True Declination
0° 00' 00"
Sunlit
Object was in full shadow at epoch
Visualization orbit readout
Latitude
Unknown
Longitude
Unknown
Altitude
Unknown
Speed
Unknown
Apparent Right ascension
Unknown
Apparent Declination
Unknown
Sunlit
N/A
Visualization observer readout
Local Sidereal Time
15:54:11
Azimuth
Unknown
Elevation
Unknown
Doppler factor
Unknown
Orbital elements
Apogee altitude
1,121.178 km
Perigee altitude
894 km
Semi-major axis
7,385.726 km
Eccentricity
0.01538
Inclination
82.5903°
RAAN
343.3788°
Arg. of periapsis
218.79°
True anomaly
141.3245°
Mean anomaly
140.2132°
Eccentric anomaly
140.77048°
Mean motion
3.41943 °/min
Orbital period
105.28 mins
BSTAR
-0.0014759
Loading maneuver chart data...
Computing Atmospheric mass density...
Loading historical data...
Loading historical data...
Loading historical data...
Loading historical data...
Loading historical data...
Loading historical data...
Loading historical data...

Documentation

Showing up to 5 results
|